TimeCST,TemperatureF,Dew PointF,Humidity,Sea Level PressureIn,VisibilityMPH,Wind Direction,Wind SpeedMPH,Gust SpeedMPH,PrecipitationIn,Events,Conditions,WindDirDegrees,DateUTC
12:53 AM,46.0,33.1,61,30.28,10.0,North,10.4,-,N/A,,Clear,350,2013-11-24 06:53:00
1:53 AM,44.1,30.9,60,30.30,10.0,North,9.2,-,N/A,,Clear,360,2013-11-24 07:53:00
2:53 AM,43.0,28.9,58,30.30,10.0,North,11.5,-,N/A,,Clear,360,2013-11-24 08:53:00
3:53 AM,41.0,30.0,65,30.33,10.0,North,10.4,-,N/A,,Clear,350,2013-11-24 09:53:00
4:53 AM,39.0,28.9,67,30.34,10.0,North,11.5,-,N/A,,Clear,350,2013-11-24 10:53:00
5:53 AM,37.9,24.1,57,30.36,10.0,North,9.2,-,N/A,,Clear,10,2013-11-24 11:53:00
6:53 AM,37.0,21.0,52,30.40,10.0,North,10.4,-,N/A,,Clear,10,2013-11-24 12:53:00
7:53 AM,39.9,19.9,45,30.40,10.0,North,13.8,25.3,N/A,,Clear,10,2013-11-24 13:53:00
8:53 AM,42.1,17.1,37,30.43,10.0,North,16.1,25.3,N/A,,Clear,10,2013-11-24 14:53:00
9:53 AM,45.0,16.0,31,30.43,10.0,NNE,15.0,23.0,N/A,,Clear,30,2013-11-24 15:53:00
10:53 AM,48.9,16.0,27,30.40,10.0,NNE,9.2,18.4,N/A,,Clear,20,2013-11-24 16:53:00
11:53 AM,51.1,15.1,24,30.36,10.0,NNE,10.4,18.4,N/A,,Clear,30,2013-11-24 17:53:00
12:53 PM,53.1,15.1,22,30.32,10.0,NNE,12.7,-,N/A,,Clear,30,2013-11-24 18:53:00
1:53 PM,55.0,15.1,21,30.31,10.0,North,10.4,-,N/A,,Clear,360,2013-11-24 19:53:00
2:53 PM,54.0,14.0,21,30.32,10.0,NNE,11.5,-,N/A,,Clear,20,2013-11-24 20:53:00
3:53 PM,53.1,15.1,22,30.34,10.0,NE,8.1,-,N/A,,Clear,40,2013-11-24 21:53:00
4:53 PM,48.0,18.0,30,30.35,10.0,NE,5.8,-,N/A,,Clear,40,2013-11-24 22:53:00
5:53 PM,44.1,23.0,43,30.37,10.0,NE,3.5,-,N/A,,Clear,40,2013-11-24 23:53:00
6:53 PM,41.0,24.1,51,30.37,10.0,Calm,Calm,-,N/A,,Clear,0,2013-11-25 00:53:00
7:53 PM,35.1,24.1,64,30.39,10.0,Calm,Calm,-,N/A,,Clear,0,2013-11-25 01:53:00
8:53 PM,33.1,25.0,72,30.40,10.0,Calm,Calm,-,N/A,,Clear,0,2013-11-25 02:53:00
9:53 PM,35.1,25.0,67,30.39,10.0,Calm,Calm,-,N/A,,Clear,0,2013-11-25 03:53:00
10:53 PM,34.0,25.0,70,30.38,10.0,Calm,Calm,-,N/A,,Clear,0,2013-11-25 04:53:00
11:53 PM,37.0,25.0,62,30.38,10.0,ENE,3.5,-,N/A,,Clear,70,2013-11-25 05:53:00